Terminal Aerodrome Forecast
Issued by NWS

Home | Current Version | Previous Version | Text Only | Print | Product List | Glossary Off
Versions: 1 2 3 4 5 6 7 8 9 10 11 12 13 14 15 16 17 18 19 20

354
FTUS43 KBIS 211101 AAA
TAFMOT
TAF AMD
KMOT 211101Z 2111/2206 25017G24KT P6SM FEW250 WS020/29045KT
     FM211400 25017G25KT P6SM BKN200 WS020/28040KT
     FM211600 25018G28KT P6SM BKN130 WS020/28030KT
     FM211700 26020G29KT P6SM SCT140
     FM220000 28013KT P6SM BKN070 WS020/29030KT=

USA.gov is the U.S. government's official web portal to all federal, state and local government web resources and services.